User: anonymous   Login
Location: Davayat
(45.9471°N, 3.1105°E)
Time: 22:05:29
(UTC+00:00)
Language:

Cosmos 371 Rocket - Orbit

View from above orbital plane
View from above orbital plane
View from above satellite
View from above satellite

Ground track
Ground track

The orbit data is extracted from the following two-line orbital elements,

1 04579U 70083B   21058.35424704  .00000044  00000-0  15351-4 0  9995
2 04579  74.0032  26.5131 0009139  64.5787 295.6324 14.60509428671958
Epoch (UTC): 27 February 2021 08:30:06
Eccentricity: 0.0009139
inclination: 74.0032°
perigee height: 685 km
apogee height: 698 km
right ascension of ascending node: 26.5131°
argument of perigee: 64.5787°
revolutions per day: 14.60509428
mean anomaly at epoch: 295.6324°
orbit number at epoch: 67195

The dashed part of the orbit path shows where the satellite is in the earth's shadow,  

DLR